{"data":{"norad_id":60130,"epoch":"2026-09-21T05:14:37.153248Z","epoch_age_seconds":119639,"freshness":"FRESH","line1":"1 60130U 24118T   26264.21848557  .00017698  00000+0  58048-3 0  9994","line2":"2 60130  53.1557 197.0255 0000680  84.1807 275.9272 15.31713619125659","mean_motion":15.31713619,"eccentricity":6.8e-5,"inclination_deg":53.1557,"raan_deg":197.0255,"arg_perigee_deg":84.1807,"mean_anomaly_deg":275.9272,"bstar":0.00058048,"rev_number":12565,"period_min":94.012352057046,"perigee_km":470.23367712107,"apogee_km":471.16511887119,"semimajor_km":6848.8363979961,"source":"CELESTRAK","updated_at":"2026-09-22T09:00:49.158301Z"}}